Regional Weather Roundup
Issued by NWS Upton, NY

Current Version | Previous Version | Text Only | Print | Product List | Glossary On
Versions: 1 2 3 4 5 6 7 8 9 10 11 12 13 14 15 16 17 18 19 20 21 22 23 24 25 26 27 28
000 ASUS41 KOKX 240909 RWROKX REGIONAL WEATHER ROUNDUP NATIONAL WEATHER SERVICE NEW YORK NY 500 AM EDT WED MAY 24 2017 NOTE: "FAIR" INDICATES FEW OR NO CLOUDS BELOW 12,000 FEET WITH NO SIGNIFICANT WEATHER AND/OR OBSTRUCTIONS TO VISIBILITY. NYZ071-072-176-178-NJZ106-104-241000- NEW YORK CITY METRO AREA CITY SKY/WX TMP DP RH WIND PRES REMARKS Central Park LGT RAIN 59 50 72 VRB3 29.75F Wall St Helipt CLOUDY 59 54 82 E8 29.73F Bronx Bot Gard N/A 57 48 72 CALM 29.74R LaGuardia APRT LGT RAIN 59 51 75 SE7 29.72F Kennedy INTL LGT RAIN 57 56 96 NE3 29.74F Breezy Point N/A 55 N/A N/A E7 N/A Newark/Liberty LGT RAIN 59 51 75 E8 29.72F Teterboro LGT RAIN 60 50 69 E6 29.71F $$ NYZ177-179-078>081-241000- LONG ISLAND NEW YORK CITY SKY/WX TMP DP RH WIND PRES REMARKS Jones Beach N/A 55 N/A N/A E6 N/A Matinecock PT NOT AVBL Farmingdale LGT RAIN 56 54 93 CALM 29.73F MacArthur/ISP LGT RAIN 55 55 100 E5 29.73F Shirley LGT RAIN 55 55 100 CALM 29.74F Mt Sinai Harb N/A 55 N/A N/A S3 N/A Westhampton LGT RAIN 55 52 89 E3 29.76F East Hampton LGT RAIN 54 53 96 SE3 29.75S Montauk N/A 55 53 93 CALM 29.78R $$ NYZ052-065-067-241000- HUDSON VALLEY CITY SKY/WX TMP DP RH WIND PRES REMARKS White Plains CLOUDY 56 53 90 CALM 29.73F Larchmont Harb N/A 57 N/A N/A E1 N/A Croton O-T Hud N/A 57 N/A N/A MISG N/A Newburgh MOCLDY 55 54 94 CALM 29.74F Montgomery PTCLDY 53 51 93 CALM 29.73S Poughkeepsie CLOUDY 53 51 93 CALM 29.72F Albany CLOUDY 54 51 90 N3 29.76S $$ NJZ001-105-106-008-010-013-015-019>022-104-241000- NEW JERSEY CITY SKY/WX TMP DP RH WIND PRES REMARKS Newark/Liberty LGT RAIN 59 51 75 E8 29.72F Teterboro LGT RAIN 60 50 69 E6 29.71F Caldwell CLOUDY 59 53 80 NE3 29.72F Somerville CLOUDY 56 55 97 CALM 29.71S Linden RAIN 58 52 81 SE7 29.72F Perth Amboy N/A 57 N/A N/A E9 N/A Sussex CLOUDY 53 52 96 CALM 29.74S Andover N/A 54 51 90 CALM 29.74R Trenton LGT RAIN 57 52 83 N3 29.72R Millville LGT RAIN 56 56 100 N6 29.69F Atlantic City CLOUDY 57 55 93 N6 29.69F Wrightstown CLOUDY 55 53 94 NE5 29.69S Toms River LGT RAIN 56 55 97 NE6 29.70F Belmar LGT RAIN 55 54 96 NE5 29.72F $$ PAZ047>061-062-071-241000- EASTERN PENNSYLVANIA CITY SKY/WX TMP DP RH WIND PRES REMARKS Philadelphia CLOUDY 57 52 83 NE6 29.72S Allentown LGT RAIN 56 53 90 CALM 29.73S Scranton CLOUDY 54 49 83 E7 29.74S $$ CTZ002-004>006-009-010-012-RIZ004-006-007-MAZ004-011-015-241000- SOUTHERN NEW ENGLAND IN CT CITY SKY/WX TMP DP RH WIND PRES REMARKS Bradley INTL CLOUDY 54 53 97 N6 29.75S Hartford CLOUDY 56 53 90 SE5 29.75S Danbury CLOUDY 54 52 93 CALM 29.75F Wtrbury/Oxford N/A 55 48 76 E5 29.76F Bridgeport MOCLDY 59 53 80 E7 29.74F Meriden CLOUDY 55 53 93 CALM 29.75F New Haven CLOUDY 56 52 86 CALM 29.74F Chester N/A 55 54 94 CALM 29.75F Groton CLOUDY 56 53 90 CALM 29.76R Wilimantic CLOUDY 56 53 90 CALM 29.77S IN RI CITY SKY/WX TMP DP RH WIND PRES REMARKS Providence CLOUDY 56 55 97 CALM 29.77S Block Island LGT RAIN 54 53 97 CALM 29.77S Westerly CLOUDY 56 54 93 N5 29.77S IN MA CITY SKY/WX TMP DP RH WIND PRES REMARKS Boston CLOUDY 56 54 93 SE3 29.77F Worcester CLOUDY 59 44 57 NE3 29.78R Westfield CLOUDY 53 53 100 N6 29.76S Provincetown CLOUDY 54 53 97 CALM 29.79S Nantucket CLOUDY 52 49 89 E6 29.76F $$ ANZ330-335-338-340-345-350-353-355-241000- COASTAL MARINE OBSERVATIONS STATION/POSITION TIME SKY/WX TEMP WIND PRES VSBY WAVE AIR SEA DIR/SP/G HT/PER (UTC) (F) (DEG/KT/KT) (MB) (MI) (FT/S) NY HARB ENTRANCE 0750 57 58 90/ 8/ 8 1007.0 3/ 7 20 S FIRE ISLAND 0850 55 55 60/ 10/ 12 1005.9 3/ 7 GREAT SOUTH BAY 0830 58 64 100/ 10/ 12 N/A 23 SSW MONTAUK P 0750 55 55 1007.5 3/ 7 15 E BARNEGAT LI 0830 57 N/A 3/ 6 HUDSON CANYON 0750 54 54 60/ 16/ 17 1004.9 4/ 7 KINGS POINT 0836 58 58 160/ 2/ 4 1006.6 EXECUTION ROCKS 0845 58 N/A CENTRAL LI SOUND 0830 57 110/ 4/ 6 N/A 0 EASTERN LI SOUND NOT AVBL ROBBINS REEF 0842 58 120/ 7/ 8 1007.2 $$ >>>>>>>>>>>>>>>>>>>>>>>>>>>> KEY <<<<<<<<<<<<<<<<<<<<<<<<<<< > < > SKY/WX - Sky Condition/Present Weather < > TMP - Temperature in Fahrenheit < > DP - Dew Point in Fahrenheit < > RH - Relative Humidity in Percent < > WIND - Direction (from) and Speed in MPH < > PRES - Mean Sea Level Pressure (inches of Hg) < > WCI - Wind Chill Index < > VSB - VISIBILITY IN MILES < > HX - HEAT INDEX < > TC - TEMPERATURE IN CELSIUS < > VRB - VARIABLE WIND DIRECTION < > < >>>>>>>>>>>>>>>>>>>>>>>>>>>> KEY <<<<<<<<<<<<<<<<<<<<<<<<<<<

USA.gov is the U.S. government's official web portal to all federal, state and local government web resources and services.